Flag for Kazakhstan Weather past 2 weeks in Almaty, Kazakhstan

Now
73 °F

Scattered clouds.


Feels Like: 76 °F
Forecast: 62 / 90 °F
Wind: 1 mph from North

Location: Almaty Airport

Current Time: Jul 30, 2015 at 8:28:20 AM

Latest Report: Jul 30, 2015 at 8:00 AM


Visibility: N/A

Pressure: 29.83 "Hg (27.23 "Hg at 790m altitude)

Humidity: 29%

Dew point: 39 °F

Location of AlmatyLocation

Historic Weather in Almaty — Graph

°F

Almaty temperature yesterday

Maximum temperature yesterday: 93 °F (at 2:30 PM)
Minimum temperature yesterday: 64 °F (at 3:30 AM)
Average temperature yesterday: 79 °F

Past Weeks' High & Low Weather Summary

 TemperatureHumidityPressure
High100 °F (Jul 15, 2:30 PM)83% (Jul 29, 12:30 AM)29.98 "Hg (Jul 29, 12:30 AM)
Low61 °F (Jul 30, 6:00 AM)7% (Jul 17, 3:00 PM)29.56 "Hg (Jul 16, 5:30 PM)
Average83 °F33%29.72 "Hg
* Reported Jul 15 7:00 AM — Jul 30 7:00 AM, Almaty, Weather by CustomWeather, © 2015

Note: Actual official high and low records may vary slightly from our data, if they occured in-between our weather recording intervals... More about our weather records

Advertising

Almaty weather history for previous 24 hours

 ConditionsComfort  
Time TempWeatherWind HumidityBarometerVisibility
7:00 AM
Thu, Jul 30
66 °FScattered clouds.1 mph43%29.83 "HgN/A
6:30 AM63 °FScattered clouds.1 mph52%29.83 "HgN/A
6:00 AM61 °FScattered clouds.3 mph52%29.80 "HgN/A
5:30 AM63 °FPassing clouds.6 mph42%29.80 "HgN/A
5:00 AM63 °FPassing clouds.6 mph42%29.80 "HgN/A
4:30 AM63 °FPassing clouds.8 mph42%29.80 "HgN/A
4:00 AM64 °FPassing clouds.8 mph43%29.80 "HgN/A
3:30 AM64 °FPassing clouds.6 mph43%29.80 "HgN/A
3:00 AM64 °FPassing clouds.3 mph46%29.80 "HgN/A
2:30 AM66 °FPassing clouds.6 mph43%29.80 "HgN/A
2:00 AM66 °FPassing clouds.3 mph40%29.77 "HgN/A
1:30 AM68 °FPassing clouds.No wind38%29.77 "HgN/A
1:00 AM68 °FPassing clouds.1 mph35%29.77 "HgN/A
12:30 AM70 °FPassing clouds.3 mph31%29.77 "HgN/A
12:00 AM75 °FPassing clouds.6 mph21%29.77 "HgN/A
11:30 PM
Wed, Jul 29
75 °FPassing clouds.8 mph22%29.77 "HgN/A
11:00 PM77 °FPassing clouds.8 mph21%29.77 "HgN/A
10:30 PM77 °FPassing clouds.8 mph24%29.74 "HgN/A
10:00 PM77 °FPassing clouds.8 mph26%29.74 "HgN/A
9:30 PM79 °FPassing clouds.6 mph26%29.74 "HgN/A
9:00 PM81 °FPassing clouds.6 mph24%29.74 "HgN/A
8:30 PM82 °FPassing clouds.3 mph23%29.71 "HgN/A
8:00 PM86 °FPartly sunny.6 mph19%29.71 "HgN/A
7:30 PM88 °FPartly sunny.6 mph17%29.68 "HgN/A
7:00 PM90 °FBroken clouds.3 mph15%29.68 "HgN/A
6:30 PM90 °FBroken clouds.1 mph15%29.68 "HgN/A
6:00 PM93 °FBroken clouds.3 mph11%29.68 "HgN/A
5:30 PM93 °FBroken clouds.10 mph12%29.68 "HgN/A
5:00 PM93 °FBroken clouds.6 mph11%29.68 "HgN/A
4:30 PM93 °FBroken clouds.6 mph12%29.68 "HgN/A
4:00 PM91 °FBroken clouds.6 mph11%29.68 "HgN/A
3:30 PM91 °FBroken clouds.6 mph15%29.68 "HgN/A
3:00 PM93 °FPartly sunny.8 mph11%29.71 "HgN/A
2:30 PM93 °FPartly sunny.6 mph10%29.71 "HgN/A
2:00 PM91 °FPartly sunny.8 mph11%29.71 "HgN/A
1:30 PM91 °FPartly sunny.6 mph14%29.71 "HgN/A
1:00 PM88 °FScattered clouds.3 mph17%29.74 "HgN/A
12:30 PM90 °FScattered clouds.6 mph21%29.74 "HgN/A
12:00 PM88 °FScattered clouds.6 mph24%29.74 "HgN/A
11:30 AM86 °FPartly sunny.3 mph29%29.74 "HgN/A
11:00 AM84 °FPartly sunny.1 mph31%29.77 "HgN/A
10:30 AM81 °FBroken clouds.1 mph39%29.77 "HgN/A
10:00 AM79 °FBroken clouds.1 mph54%29.77 "HgN/A
9:30 AM75 °FBroken clouds.1 mph54%29.77 "HgN/A
9:00 AM73 °FBroken clouds.3 mph61%29.77 "HgN/A
8:30 AM72 °FPartly sunny.1 mph61%29.77 "HgN/A
8:00 AM70 °FPartly sunny.1 mph64%29.77 "HgN/A
Weather by CustomWeather, © 2015

See weather overviewHow to use our weather pages